BEIDOU-2 G5

Last updated on Tue Sep 22 2026 00:03:12 GMT+0000 (Coordinated Universal Time)

1 38091U 12008A 26264.50068406 .00000056 00000+0 00000+0 0 9990 2 38091 3.8081 68.9901 0006763 239.0109 291.3023 1.00271447 53332
UTC large
Height (km)
Speed (km/s)
/
Latitude / Longitude
Inclination (degrees)
Orbital Period (minutes)
Azimuth
Elevation
Range (km)
Doppler Factor

Next 0 passes for location: London (51.5072 / 0.1276)

No passes found over London.
BEIDOU-2 G5